{"data":{"norad_id":62609,"epoch":"2026-09-22T16:26:41.033760Z","epoch_age_seconds":128591,"freshness":"FRESH","line1":"1 62609U 25009A   26265.68519715  .00001809  00000+0  81665-4 0  9999","line2":"2 62609  97.3857 342.2266 0007477   4.8912 355.2396 15.22246915 93527","mean_motion":15.22246915,"eccentricity":0.0007477,"inclination_deg":97.3857,"raan_deg":342.2266,"arg_perigee_deg":4.8912,"mean_anomaly_deg":355.2396,"bstar":8.1665e-5,"rev_number":9352,"period_min":94.597005637551,"perigee_km":493.92279152853,"apogee_km":504.20695921296,"semimajor_km":6877.2018753707,"source":"CELESTRAK","updated_at":"2026-09-23T09:00:21.498221Z"}}